Find Fuji-OSCAR-20

NORAD ID: 20480 Int'l Des: 1990-013 Owner: JARL Country: J operational
LEORETROGRADE

Current View

Loading 3D Globe...

About Fuji-OSCAR-20

Description loading...

Upcoming Passes

Passes for default location (London). Set your location on the main map for personalized predictions.

Altitude History

Loading altitude history...

Two-Line Element Set

1 20480U 90013C 26150.39483108 -.00000036 00000-0 -88758-5 0 9999
2 20480 99.0732 76.6087 0540008 184.8660 174.7058 12.83489435701052
Epoch: May 30, 2026 • Age: 13 hours

Current Status

Altitude 1741.9 km
Velocity 6.82 km/s
Sub-Earth Point 10.69°N, 152.64°W
Launch Date Feb 7, 1990
Age 36.3 years
Type other

Technical Details

Classification Payload
Mass 50.00 kg
Dry Mass 50.00 kg
Total Mass 50.00 kg
Length 0.50 m
Diameter 0.40 m
Span 0.50 m
Shape Poly
Manufacturer JARL
Bus Type JAS
Phase Status In Orbit
Owner/State JARL/J

Most Searched